Location: Bernay
(48.6766°N, 2.9386°E)
Time: 14:30:49
(UTC+00:00)

Radarsat Rocket - Visible Passes

Search period start: 19 April 2026 00:00
Search period end: 29 April 2026 00:00
Orbit: 933 x 1491 km, 100.5° (Epoch: 18 April)

Date Brightness Start Highest point End Pass type
(mag) Time Alt. Az. Time Alt. Az. Time Alt. Az.
19 Apr 6.5 19:42:35 10° SSW 19:50:09 34° W 19:57:48 10° NNW visible
20 Apr 6.3 19:28:55 10° SSW 19:36:50 40° W 19:44:48 10° NNW visible
21 Apr 6.0 19:15:22 10° S 19:23:34 47° W 19:31:46 10° NNW visible
22 Apr 7.4 20:56:39 10° WSW 20:59:59 13° W 21:03:20 10° WNW visible
23 Apr 7.2 20:41:43 10° WSW 20:46:29 16° W 20:51:16 10° NW visible
24 Apr 7.1 20:27:18 10° SW 20:33:03 19° W 20:38:46 10° NW visible
25 Apr 7.0 20:13:08 10° SW 20:19:37 23° W 20:26:04 10° NW visible
26 Apr 6.8 19:59:11 10° SSW 20:06:15 28° W 20:13:14 10° NW visible
27 Apr 6.6 19:45:23 10° SSW 19:52:55 33° W 20:00:18 10° NNW visible
28 Apr 6.3 19:31:43 10° SSW 19:39:36 39° W 19:47:18 10° NNW visible
